Regional Weather Roundup
Issued by NWS Mt. Holly, NJ

Home | Current Version | Previous Version | Text Only | Print | Product List | Glossary On
Versions: 1 2 3 4 5 6 7 8 9 10 11 12 13 14 15 16 17 18 19 20 21 22 23 24 25 26 27
000
ASUS41 KPHI 190512
RWRPHI

REGIONAL WEATHER ROUNDUP
NATIONAL WEATHER SERVICE MOUNT HOLLY NJ
100 AM EDT SAT AUG 19 2017

NOTE:  "FAIR" INDICATES FEW OR NO CLOUDS BELOW 12,000 FEET WITH NO
SIGNIFICANT WEATHER AND/OR OBSTRUCTIONS TO VISIBILITY.

 * = STATION DOES NOT REPORT PRECIPITATION (E.G. RAIN, SNOW, ETC.)
        OR FOG.

NJZ015>026-190600-
SOUTHERN NEW JERSEY

CITY           SKY/WX    TMP DP  RH WIND       PRES   REMARKS
POMONA         MOCLDY    75  74  96 W6        29.82F
WILDWOOD*      FAIR      74  73  97 SW6       29.84S
MILLVILLE      FAIR      76  76 100 W6        29.83S
WRIGHTSTOWN    CLOUDY    74  73  96 W7        29.79F
MOUNT HOLLY    CLOUDY    74  74 100 SW3       29.82F
TRENTON        CLOUDY    75  74  96 W5        29.81F FOG

$$
NJZ001>014-190600-
NORTHERN NEW JERSEY

CITY           SKY/WX    TMP DP  RH WIND       PRES   REMARKS
SUSSEX         CLOUDY    74  73  97 CALM      29.81F
ANDOVER*         N/A     73  71  93 CALM      29.82F
MORRISTOWN     CLOUDY    72  72 100 CALM      29.80F
NEWARK         CLOUDY    74  72  93 SW8       29.79F
TETERBORO      FAIR      74  72  93 SW3       29.78F
CALDWELL       MOCLDY    72  72 100 VRB3      29.80F
SOMERVILLE     MOCLDY    72  72 100 CALM      29.79F FOG
ALLAIRE*       FAIR      72  71  97 W8        29.81F
TOMS RIVER*    FAIR      73  72  96 W7        29.81F

$$
PAZ043-044-047-054-055-060>062-066>071-190600-
EASTERN PENNSYLVANIA

CITY           SKY/WX    TMP DP  RH WIND       PRES   REMARKS
PHILADELPHIA   CLOUDY    76  73  91 SW13      29.83S
NORTH PHILA    FAIR      76  73  91 SW5       29.83F
BLUE BELL*     FAIR      72  72 100 W3        29.84F
DOYLESTOWN     CLOUDY    74  73  97 SW3       29.82F
QUAKERTOWN*    CLOUDY    72  72 100 SW3       29.85S VSB 1/4
PERKASIE*      CLOUDY    72  72 100 W3        29.84F FOG
POTTSTOWN      FAIR      72  72 100 W3        29.85S
LANCASTER      CLOUDY    75  75 100 S5        29.85R
COATESVILLE    CLOUDY    73  73 100 VRB7      29.87S FOG
READING        CLOUDY    74  74 100 S5        29.83S
ALLENTOWN      MOCLDY    72  70  93 MISG      29.83F
MOUNT POCONO   FAIR      69  69 100 W9        29.88F
HAZLETON         N/A     70  66  88 CALM      29.91F FOG
LEHIGHTON      FOG       70  70 100 CALM      29.85S VSB 1
WILKES BARRE   FAIR      72  69  90 SW3       29.84F

$$
DEZALL-MDZ008-012-015-019-020-190600-
DELAWARE AND EASTERN MARYLAND

CITY           SKY/WX    TMP DP  RH WIND       PRES   REMARKS
WILMINGTON     MOCLDY    74  74 100 CALM      29.84F
DOVER          CLEAR     73  73 100 SW9       29.82S
GEORGETOWN     FAIR      74  72  93 SW7       29.86R
EASTON         FAIR     N/A N/A N/A SW5       29.89S
ABERDEEN       MOCLDY    75  73  94 W7        29.85R
PATUXENT       FAIR      75  74  96 SW8       29.86R
OCEAN CITY     FAIR      75  73  93 S8        29.86S
WALLOPS ISLAND FAIR      74  74 100 S8        29.87R
CAMBRIDGE      PTCLDY    73  72  94 CALM      29.85S
SALISBURY      FAIR      73  73 100 SW3       29.85R

$$
PAZ001-021-NYZ056-072-MDZ011-DCZ001-190600-
OTHER NEARBY LOCATIONS

CITY           SKY/WX    TMP DP  RH WIND       PRES   REMARKS
HARRISBURG     MOCLDY    77  75  93 NW5       29.83S
STATE COLLEGE  FAIR      69  62  78 W3        29.90R
WILLIAMSPORT   MOCLDY    71  70  96 CALM      29.83R FOG
BINGHAMTON     MOCLDY    67  62  84 SW3       29.87F
NEW YORK CITY  FAIR      74  72  93 W5        29.82F
BALTIMORE      MOCLDY    75  75 100 SW6       29.85S
WASHINGTON DC  CLOUDY    78  77  96 S7        29.87R

$$




USA.gov is the U.S. government's official web portal to all federal, state and local government web resources and services.